PDT,Max TemperatureF,Mean TemperatureF,Min TemperatureF,Max Dew PointF,MeanDew PointF,Min DewpointF,Max Humidity, Mean Humidity, Min Humidity, Max Sea Level PressureIn, Mean Sea Level PressureIn, Min Sea Level PressureIn, Max VisibilityMiles, Mean VisibilityMiles, Min VisibilityMiles, Max Wind SpeedMPH, Mean Wind SpeedMPH, Max Gust SpeedMPH,PrecipitationIn, CloudCover, Events, WindDirDegrees
2013-3-1,89,68,47,38,27,15,51,29,7,30.32,30.25,30.19,10,10,10,24,8,30,0.00,0,,78
2013-3-2,79,66,52,52,38,26,86,52,18,30.22,30.17,30.11,10,10,6,13,6,15,0.00,1,,249
2013-3-3,68,61,53,52,50,47,80,64,48,30.10,30.05,29.99,10,10,6,14,6,18,T,4,,227
2013-3-4,65,56,47,49,47,43,86,71,56,30.12,30.08,30.03,10,10,8,15,6,18,0.00,2,,152
2013-3-5,63,55,46,49,47,43,83,72,60,30.15,30.11,30.06,10,9,5,15,6,20,0.00,7,,261
2013-3-6,59,54,48,50,46,42,86,72,57,30.17,30.10,30.01,10,10,5,12,4,14,T,8,,175
2013-3-7,61,56,51,50,47,42,89,70,51,30.04,29.98,29.84,10,9,3,13,4,17,0.38,6,Rain,193
2013-3-8,60,54,48,47,44,41,86,71,55,30.04,29.90,29.82,10,9,2,22,10,26,0.43,6,Rain,278
2013-3-9,65,55,44,48,43,38,83,63,42,30.24,30.15,30.07,10,10,10,20,6,23,0.00,0,,276
2013-3-10,74,58,42,48,40,30,77,49,20,30.30,30.24,30.20,10,10,10,20,6,23,0.00,0,,283
2013-3-11,71,57,42,47,41,36,83,58,33,30.21,30.15,30.08,10,10,10,12,4,15,0.00,0,,251
2013-3-12,72,59,45,53,45,39,80,61,41,30.11,30.08,30.05,10,10,10,12,3,14,0.00,0,,278
2013-3-13,73,59,45,52,48,41,93,70,47,30.14,30.09,30.06,10,6,0,10,3,13,0.00,1,Fog,272
2013-3-14,68,59,49,52,50,46,96,76,56,30.14,30.08,30.04,10,5,0,10,3,14,0.00,1,Fog,277
2013-3-15,65,59,53,54,52,50,93,83,72,30.06,30.01,29.96,9,3,1,14,4,18,0.00,6,,237
2013-3-16,63,57,50,52,51,46,93,81,69,30.02,29.96,29.92,10,3,0,12,3,15,0.00,5,Fog,246
2013-3-17,65,57,49,53,48,45,96,80,63,30.04,29.98,29.94,10,4,0,12,4,15,0.00,2,Fog,276
2013-3-18,64,56,47,51,48,43,86,71,56,30.11,30.06,29.98,10,8,4,12,4,15,0.00,4,,34
2013-3-19,67,57,47,52,49,43,86,71,56,30.14,30.10,30.07,10,7,4,13,4,16,0.00,1,,237
2013-3-20,69,61,53,54,50,48,86,69,52,30.12,30.06,29.98,10,8,4,14,4,16,0.00,1,,235
2013-3-21,69,60,50,52,49,45,77,65,53,29.95,29.90,29.83,10,9,8,17,4,22,0.00,0,,178
2013-3-22,71,58,45,49,45,39,86,63,40,29.92,29.87,29.81,10,10,8,14,4,18,0.00,0,,191
2013-3-23,69,55,41,51,43,30,77,58,38,30.04,29.99,29.93,10,10,7,14,4,18,0.00,0,,231
2013-3-24,71,58,45,52,46,40,83,62,40,30.05,29.99,29.93,10,9,7,13,4,16,0.00,0,,258
2013-3-25,70,58,45,54,48,39,83,68,52,30.00,29.96,29.93,10,8,4,13,4,16,0.00,0,,246
2013-3-26,67,58,49,52,49,46,93,76,58,30.00,29.96,29.92,10,5,0,15,5,18,0.00,4,Fog,245
2013-3-27,68,60,51,52,49,45,83,68,52,30.07,30.01,29.94,10,9,6,15,5,20,0.00,2,,258
2013-3-28,68,61,54,53,51,50,89,74,58,30.11,30.07,30.02,10,7,4,14,4,17,0.00,5,,22
2013-3-29,68,60,52,54,51,48,86,75,63,30.14,30.09,30.04,10,5,0,13,5,17,0.00,5,Fog,205
2013-3-30,69,63,57,54,52,51,86,72,58,30.16,30.12,30.07,10,8,4,15,4,20,0.00,5,,218
2013-3-31,67,62,56,58,54,51,86,77,67,30.14,30.11,30.07,10,9,2,16,6,20,0.06,7,Rain,233